Location: Kitt Peak
(31.9639°N, 111.5992°W)
Time: 05:17:04
(UTC-07:00)

DIWATA 2B (PO-101) - Visible Passes

Search period start: 17 September 2024 00:00
Search period end: 27 September 2024 00:00
Orbit: 572 x 586 km, 98.1° (Epoch: 17 September)

Date Brightness Start Highest point End Pass type
(mag) Time Alt. Az. Time Alt. Az. Time Alt. Az.
17 Sep ? 04:21:33 27° SSE 04:23:42 80° E 04:27:47 10° N visible
18 Sep ? 04:26:30 31° SSE 04:28:22 89° WSW 04:32:27 10° NNW visible
19 Sep ? 04:31:27 37° S 04:33:01 78° WSW 04:37:06 10° NNW visible
20 Sep ? 04:36:25 42° SSW 04:37:38 67° WSW 04:41:42 10° NNW visible
21 Sep ? 04:41:23 46° SSW 04:42:15 58° W 04:46:17 10° NNW visible
22 Sep ? 04:46:22 47° SW 04:46:51 50° W 04:50:49 10° NNW visible
23 Sep ? 03:15:30 10° E 03:16:38 11° ENE 03:17:45 10° NE visible
23 Sep ? 04:51:20 44° WSW 04:51:26 44° W 04:55:20 10° NNW visible
24 Sep ? 03:19:58 11° E 03:21:09 12° ENE 03:22:53 10° NE visible
24 Sep ? 04:56:18 38° W 04:56:18 38° W 04:59:49 10° NNW visible
25 Sep ? 03:24:57 14° E 03:25:39 14° ENE 03:27:48 10° NE visible
25 Sep ? 05:01:16 31° WNW 05:01:16 31° WNW 05:04:16 10° NNW visible
26 Sep ? 03:29:55 16° ENE 03:30:08 16° ENE 03:32:37 10° NNE visible
26 Sep ? 05:06:14 25° WNW 05:06:14 25° WNW 05:08:41 10° NW visible
